Carbondale, IL

5:18 PM CDT on July 24, 2017 (GMT -0500)
Southern Illinois

Weather History for KMDH - February, 2013

Change the Weather History Date:

Tuesday, February 19, 2013

  Actual Average Record
Temperature  
Mean Temperature 36 °F -  
Max Temperature 44 °F 47 °F 72 °F (1930)
Min Temperature 28 °F 28 °F -6 °F (1936)
Degree Days  
Heating Degree Days 29    
Moisture  
Dew Point 18 °F    
Average Humidity 50    
Maximum Humidity 65    
Minimum Humidity 27    
Precipitation  
Precipitation 0.00 in - - ()
Sea Level Pressure  
Sea Level Pressure 30.12 in    
Wind  
Wind Speed 12 mph (WNW)    
Max Wind Speed 18 mph    
Max Gust Speed 30 mph    
Visibility 10 miles    
Events      
Averages and records for this station are not official NWS values.
T = Trace of Precipitation, MM = Missing Value Source: NWS Daily Summary

Daily Weather History Graph

Daily Weather History Graph

Search for Another Location

Airport or City:

Trip Planner

Search our weather history database for the weather conditions in past years. The results will help you decide how hot, cold, wet, or windy it might be!

Date:

Astronomy

Feb. 19, 2013 Rise Set
Actual Time 6:41 AM CST 5:40 PM CST
Civil Twilight 6:14 AM CST 6:07 PM CST
Nautical Twilight 5:44 AM CST 6:37 PM CST
Astronomical Twilight 5:13 AM CST 7:08 PM CST
Moon 12:15 PM CST (2/19) 2:10 AM CST (2/19)
Length of Visible Light 11h 52m
Length of Day
10h 59m
Waxing Gibbous, 67% of the Moon is Illuminated
Feb 19
Waxing Gibbous
Feb 25
Full
Mar 4
Last Quarter
Mar 11
New
Mar 19
First Quarter

Hourly Weather History & Observations

Time (CST) Temp. Windchill Dew Point Humidity Pressure Visibility Wind Dir Wind Speed Gust Speed Precip Events Conditions
12:52 AM 39.9 °F 30.8 °F 28.9 °F 65% 29.94 in 10.0 mi WNW 18.4 mph 28.8 mph N/A   Overcast
1:52 AM 39.0 °F 32.8 °F 27.0 °F 62% 29.96 in 10.0 mi West 9.2 mph 21.9 mph N/A   Overcast
2:38 AM 35.6 °F 28.0 °F 23.0 °F 60% 29.97 in 10.0 mi WNW 10.4 mph - N/A   Scattered Clouds
2:52 AM 36.0 °F 30.3 °F 23.0 °F 59% 29.98 in 10.0 mi WNW 6.9 mph - N/A   Clear
3:52 AM 35.1 °F 27.4 °F 23.0 °F 61% 29.99 in 10.0 mi West 10.4 mph - N/A   Clear
4:52 AM 34.0 °F 24.6 °F 21.0 °F 59% 30.01 in 10.0 mi WNW 13.8 mph 25.3 mph N/A   Clear
5:52 AM 33.1 °F 24.4 °F 19.0 °F 56% 30.04 in 10.0 mi West 11.5 mph - N/A   Clear
6:52 AM 32.0 °F 22.5 °F 19.0 °F 59% 30.05 in 10.0 mi West 12.7 mph 29.9 mph N/A   Clear
7:52 AM 33.1 °F 24.9 °F 18.0 °F 54% 30.08 in 10.0 mi West 10.4 mph - N/A   Clear
8:52 AM 34.0 °F 23.8 °F 18.0 °F 52% 30.11 in 10.0 mi WNW 16.1 mph 23.0 mph N/A   Clear
9:52 AM 35.1 °F 25.9 °F 16.0 °F 46% 30.13 in 10.0 mi WNW 13.8 mph 21.9 mph N/A   Clear
10:52 AM 37.0 °F 29.3 °F 16.0 °F 42% 30.14 in 10.0 mi West 11.5 mph - N/A   Clear
12:52 PM 41.0 °F 34.3 °F 17.1 °F 38% 30.14 in 10.0 mi WNW 11.5 mph 23.0 mph N/A   Clear
1:52 PM 43.0 °F 35.1 °F 14.0 °F 31% 30.14 in 10.0 mi NW 17.3 mph 25.3 mph N/A   Clear
2:52 PM 43.0 °F 36.4 °F 12.9 °F 30% 30.15 in 10.0 mi WNW 12.7 mph 24.2 mph N/A   Clear
3:52 PM 44.1 °F 39.0 °F 12.9 °F 28% 30.17 in 10.0 mi WNW 9.2 mph 20.7 mph N/A   Clear
4:52 PM 42.1 °F 34.9 °F 10.0 °F 27% 30.19 in 10.0 mi WNW 13.8 mph 21.9 mph N/A   Clear
6:52 PM 35.1 °F 27.9 °F 14.0 °F 42% 30.23 in 10.0 mi NNW 9.2 mph - N/A   Clear
7:52 PM 32.0 °F 26.4 °F 16.0 °F 52% 30.25 in 10.0 mi NNW 5.8 mph - N/A   Clear
8:52 PM 30.9 °F 25.2 °F 14.0 °F 50% 30.28 in 10.0 mi NW 5.8 mph - N/A   Clear
9:52 PM 30.0 °F 23.2 °F 17.1 °F 59% 30.30 in 10.0 mi NNW 6.9 mph - N/A   Clear
10:52 PM 28.9 °F 21.9 °F 16.0 °F 58% 30.30 in 10.0 mi NNW 6.9 mph - N/A   Clear
11:52 PM 28.0 °F 20.0 °F 14.0 °F 56% 30.30 in 10.0 mi NW 8.1 mph - N/A   Clear